EAG5511 SBCF-SBSP

Flight info

Callsign EAG5511
Flight time 1h 4m
Altitude 43000
Route ANDEM UZ30 ENTIT
Aircraft C700/M-SBDGHM1RWXY/LB2

Departure

Time 2026-05-04 18:07
Airport Tancredo Neves International Airport (SBCF)

Arrival

Time 2026-05-04 19:12
Airport Congonhas–Deputado Freitas Nobre Airport (SBSP)
Time Latitude Longitude Altitude Speed Heading
2026-05-04 17:59 -19.62863 -43.97012 2838 ft 0 kts 229°
2026-05-04 18:02 -19.62856 -43.97004 2845 ft 2 kts 229°
2026-05-04 18:02 -19.62845 -43.96991 2820 ft 2 kts 229°
2026-05-04 18:02 -19.62835 -43.96979 2819 ft 2 kts 238°
2026-05-04 18:03 -19.62834 -43.96964 2816 ft 2 kts 320°
2026-05-04 18:03 -19.62797 -43.96997 2815 ft 13 kts 320°
2026-05-04 18:04 -19.62813 -43.97072 2816 ft 13 kts 230°
2026-05-04 18:04 -19.62824 -43.97154 2817 ft 14 kts 311°
2026-05-04 18:04 -19.62657 -43.97306 2816 ft 18 kts 320°
2026-05-04 18:05 -19.62553 -43.97396 2815 ft 20 kts 321°
2026-05-04 18:05 -19.62438 -43.97494 2815 ft 22 kts 322°
2026-05-04 18:05 -19.62338 -43.97600 2815 ft 18 kts 311°
2026-05-04 18:05 -19.62279 -43.97685 2815 ft 11 kts 268°
2026-05-04 18:06 -19.62309 -43.97726 2815 ft 0 kts 229°
2026-05-04 18:06 -19.62337 -43.97760 2815 ft 11 kts 229°
2026-05-04 18:07 -19.62406 -43.97762 2815 ft 9 kts 152°
2026-05-04 18:07 -19.62591 -43.97595 2814 ft 78 kts 139°
2026-05-04 18:07 -19.63232 -43.97013 2841 ft 164 kts 139°
2026-05-04 18:07 -19.64247 -43.96080 3502 ft 212 kts 136°
2026-05-04 18:08 -19.65402 -43.94993 4930 ft 231 kts 137°
2026-05-04 18:08 -19.66704 -43.93903 6436 ft 247 kts 147°
2026-05-04 18:08 -19.68344 -43.93262 7917 ft 259 kts 166°
2026-05-04 18:08 -19.70171 -43.93160 9557 ft 264 kts 186°
2026-05-04 18:09 -19.73420 -43.94725 12774 ft 253 kts 223°
2026-05-04 18:09 -19.75176 -43.97864 15264 ft 258 kts 254°
2026-05-04 18:10 -19.75402 -43.99849 15837 ft 286 kts 268°
2026-05-04 18:10 -19.75450 -44.02066 16391 ft 315 kts 267°
2026-05-04 18:10 -19.75556 -44.04485 17019 ft 339 kts 266°
2026-05-04 18:10 -19.75664 -44.07003 18174 ft 343 kts 267°
2026-05-04 18:11 -19.75757 -44.09549 19302 ft 347 kts 267°
2026-05-04 18:11 -19.75849 -44.12110 20460 ft 348 kts 267°
2026-05-04 18:11 -19.75949 -44.14652 21583 ft 350 kts 268°
2026-05-04 18:11 -19.76050 -44.17245 22694 ft 353 kts 268°
2026-05-04 18:12 -19.76147 -44.19861 23770 ft 356 kts 268°
2026-05-04 18:12 -19.76243 -44.22496 24665 ft 359 kts 268°
2026-05-04 18:12 -19.76332 -44.25149 25564 ft 361 kts 268°
2026-05-04 18:12 -19.76419 -44.27826 26472 ft 364 kts 267°
2026-05-04 18:13 -19.76513 -44.30526 27354 ft 368 kts 267°
2026-05-04 18:13 -19.76623 -44.33249 28193 ft 371 kts 266°
2026-05-04 18:13 -19.76846 -44.38734 29843 ft 378 kts 266°
2026-05-04 18:14 -19.77009 -44.41527 30599 ft 381 kts 262°
2026-05-04 18:14 -19.77500 -44.44303 31267 ft 385 kts 256°
2026-05-04 18:14 -19.78323 -44.47018 31921 ft 389 kts 250°
2026-05-04 18:15 -19.80292 -44.52417 33143 ft 395 kts 250°
2026-05-04 18:15 -19.82242 -44.57805 34706 ft 390 kts 250°
2026-05-04 18:15 -19.83216 -44.60479 35513 ft 386 kts 250°
2026-05-04 18:16 -19.84173 -44.63123 36339 ft 381 kts 250°
2026-05-04 18:16 -19.85117 -44.65737 37070 ft 377 kts 250°
2026-05-04 18:16 -19.86054 -44.68328 37735 ft 374 kts 250°
2026-05-04 18:17 -19.87907 -44.73445 38888 ft 369 kts 249°
2026-05-04 18:17 -19.88811 -44.75952 39276 ft 368 kts 249°
2026-05-04 18:17 -19.90641 -44.81029 39964 ft 367 kts 249°
2026-05-04 18:18 -19.91553 -44.83560 40342 ft 366 kts 249°
2026-05-04 18:18 -19.92464 -44.86083 40645 ft 366 kts 249°
2026-05-04 18:18 -19.93371 -44.88605 40938 ft 366 kts 249°
2026-05-04 18:18 -19.94280 -44.91131 41206 ft 366 kts 249°
2026-05-04 18:19 -19.96085 -44.96146 41723 ft 365 kts 249°
2026-05-04 18:19 -19.96991 -44.98667 42014 ft 365 kts 249°
2026-05-04 18:19 -19.97895 -45.01182 42264 ft 364 kts 249°
2026-05-04 18:20 -19.98797 -45.03695 42498 ft 364 kts 249°
2026-05-04 18:20 -19.99696 -45.06203 42730 ft 363 kts 249°
2026-05-04 18:20 -20.00597 -45.08712 42931 ft 363 kts 249°
2026-05-04 18:20 -20.01498 -45.11224 43106 ft 364 kts 249°
2026-05-04 18:21 -20.03322 -45.16322 43099 ft 373 kts 250°
2026-05-04 18:21 -20.05175 -45.21495 43109 ft 381 kts 250°
2026-05-04 18:22 -20.07077 -45.26815 43113 ft 389 kts 249°
2026-05-04 18:22 -20.09017 -45.32241 43116 ft 396 kts 249°
2026-05-04 18:23 -20.11611 -45.37417 43119 ft 404 kts 238°
2026-05-04 18:23 -20.15312 -45.42001 43118 ft 414 kts 226°
2026-05-04 18:24 -20.19770 -45.45936 43114 ft 417 kts 224°
2026-05-04 18:24 -20.24247 -45.49861 43113 ft 417 kts 224°
2026-05-04 18:25 -20.28717 -45.53751 43113 ft 417 kts 224°
2026-05-04 18:25 -20.33191 -45.57663 43108 ft 413 kts 224°
2026-05-04 18:26 -20.37617 -45.61533 43105 ft 411 kts 224°
2026-05-04 18:26 -20.42032 -45.65398 43108 ft 411 kts 224°
2026-05-04 18:27 -20.46444 -45.69261 43104 ft 410 kts 224°
2026-05-04 18:27 -20.50821 -45.73098 43108 ft 410 kts 224°
2026-05-04 18:28 -20.55229 -45.76965 43105 ft 410 kts 224°
2026-05-04 18:28 -20.59634 -45.80831 43109 ft 410 kts 224°
2026-05-04 18:29 -20.64035 -45.84700 43101 ft 410 kts 224°
2026-05-04 18:29 -20.68398 -45.88537 43100 ft 409 kts 224°
2026-05-04 18:30 -20.74990 -45.94336 43115 ft 409 kts 224°
2026-05-04 18:31 -20.79379 -45.98197 43109 ft 408 kts 224°
2026-05-04 18:31 -20.83756 -46.02055 43111 ft 408 kts 224°
2026-05-04 18:32 -20.88105 -46.05888 43109 ft 408 kts 224°
2026-05-04 18:32 -20.92482 -46.09748 43109 ft 408 kts 224°
2026-05-04 18:33 -20.97046 -46.13378 43108 ft 413 kts 216°
2026-05-04 18:33 -21.02326 -46.15973 43110 ft 424 kts 205°
2026-05-04 18:34 -21.07885 -46.17935 43116 ft 422 kts 205°
2026-05-04 18:34 -21.13454 -46.19911 43110 ft 421 kts 205°
2026-05-04 18:35 -21.19021 -46.21880 43112 ft 422 kts 204°
2026-05-04 18:35 -21.24632 -46.23741 43113 ft 421 kts 205°
2026-05-04 18:36 -21.30174 -46.25651 43114 ft 421 kts 205°
2026-05-04 18:36 -21.35765 -46.27543 43114 ft 422 kts 204°
2026-05-04 18:37 -21.41358 -46.29455 43118 ft 422 kts 205°
2026-05-04 18:37 -21.46958 -46.31361 43118 ft 422 kts 205°
2026-05-04 18:38 -21.52507 -46.33258 43120 ft 421 kts 205°
2026-05-04 18:38 -21.58099 -46.35170 43119 ft 422 kts 205°
2026-05-04 18:38 -21.60909 -46.36127 42889 ft 427 kts 205°
2026-05-04 18:39 -21.63748 -46.37101 42327 ft 428 kts 204°
2026-05-04 18:39 -21.66565 -46.38080 41769 ft 423 kts 205°
2026-05-04 18:39 -21.69329 -46.39097 41223 ft 418 kts 206°
2026-05-04 18:39 -21.72066 -46.40106 40673 ft 413 kts 206°
2026-05-04 18:40 -21.74776 -46.41098 40126 ft 411 kts 205°
2026-05-04 18:40 -21.77445 -46.42075 39598 ft 411 kts 205°
2026-05-04 18:40 -21.80165 -46.43078 39053 ft 416 kts 205°
2026-05-04 18:40 -21.82923 -46.44095 38463 ft 420 kts 205°
2026-05-04 18:41 -21.85687 -46.45104 37931 ft 419 kts 205°
2026-05-04 18:41 -21.88460 -46.46121 37350 ft 423 kts 205°
2026-05-04 18:41 -21.91259 -46.47146 36791 ft 426 kts 205°
2026-05-04 18:41 -21.94066 -46.48191 36229 ft 428 kts 205°
2026-05-04 18:42 -21.96892 -46.49235 35655 ft 431 kts 205°
2026-05-04 18:42 -21.99740 -46.50275 35086 ft 433 kts 204°
2026-05-04 18:42 -22.02562 -46.51311 34519 ft 435 kts 205°
2026-05-04 18:42 -22.05430 -46.52372 33920 ft 437 kts 205°
2026-05-04 18:43 -22.08308 -46.53435 33330 ft 437 kts 204°
2026-05-04 18:43 -22.11190 -46.54495 32747 ft 438 kts 204°
2026-05-04 18:43 -22.14078 -46.55557 32169 ft 439 kts 204°
2026-05-04 18:43 -22.16970 -46.56630 31586 ft 441 kts 204°
2026-05-04 18:44 -22.19869 -46.57704 30996 ft 440 kts 204°
2026-05-04 18:44 -22.20811 -46.58051 30811 ft 440 kts 204°
2026-05-04 18:44 -22.25626 -46.59826 29804 ft 442 kts 204°
2026-05-04 18:44 -22.28551 -46.60911 29211 ft 446 kts 204°
2026-05-04 18:45 -22.31495 -46.62001 28621 ft 449 kts 203°
2026-05-04 18:45 -22.34457 -46.63095 28029 ft 452 kts 203°
2026-05-04 18:45 -22.37441 -46.64215 27426 ft 454 kts 205°
2026-05-04 18:45 -22.40292 -46.65635 26834 ft 448 kts 211°
2026-05-04 18:46 -22.42920 -46.67368 26231 ft 438 kts 217°
2026-05-04 18:46 -22.45307 -46.69385 25662 ft 433 kts 223°
2026-05-04 18:46 -22.47498 -46.71600 25094 ft 430 kts 225°
2026-05-04 18:46 -22.49686 -46.73800 24524 ft 429 kts 225°
2026-05-04 18:47 -22.51840 -46.75954 23966 ft 427 kts 225°
2026-05-04 18:47 -22.54007 -46.78141 23365 ft 425 kts 225°
2026-05-04 18:47 -22.56147 -46.80312 23087 ft 418 kts 225°
2026-05-04 18:47 -22.58285 -46.82476 23083 ft 423 kts 225°
2026-05-04 18:48 -22.60431 -46.84644 23089 ft 422 kts 225°
2026-05-04 18:48 -22.62582 -46.86821 22979 ft 424 kts 225°
2026-05-04 18:48 -22.64732 -46.88997 22744 ft 422 kts 225°
2026-05-04 18:48 -22.66855 -46.91126 22474 ft 421 kts 223°
2026-05-04 18:49 -22.69216 -46.93005 22193 ft 423 kts 215°
2026-05-04 18:49 -22.71710 -46.94685 21924 ft 421 kts 215°
2026-05-04 18:49 -22.74181 -46.96375 21665 ft 419 kts 215°
2026-05-04 18:49 -22.76647 -46.98069 21389 ft 419 kts 215°
2026-05-04 18:50 -22.79112 -46.99745 21118 ft 418 kts 215°
2026-05-04 18:50 -22.81567 -47.01414 20852 ft 416 kts 215°
2026-05-04 18:50 -22.84018 -47.03087 20586 ft 416 kts 215°
2026-05-04 18:50 -22.86458 -47.04757 20327 ft 415 kts 215°
2026-05-04 18:51 -22.88898 -47.06422 20054 ft 414 kts 215°
2026-05-04 18:51 -22.91304 -47.08054 19791 ft 413 kts 215°
2026-05-04 18:51 -22.93743 -47.09692 19527 ft 412 kts 215°
2026-05-04 18:51 -22.96172 -47.11332 19259 ft 411 kts 214°
2026-05-04 18:52 -22.98721 -47.12747 18990 ft 413 kts 206°
2026-05-04 18:52 -23.01455 -47.13731 18718 ft 416 kts 198°
2026-05-04 18:52 -23.04320 -47.14264 18453 ft 420 kts 189°
2026-05-04 18:52 -23.07248 -47.14321 18154 ft 422 kts 180°
2026-05-04 18:53 -23.10158 -47.13897 17844 ft 423 kts 172°
2026-05-04 18:53 -23.13031 -47.13241 17555 ft 420 kts 172°
2026-05-04 18:53 -23.15853 -47.12634 17278 ft 418 kts 172°
2026-05-04 18:53 -23.18695 -47.12017 16992 ft 416 kts 172°
2026-05-04 18:54 -23.21524 -47.11386 16669 ft 414 kts 171°
2026-05-04 18:54 -23.24342 -47.10758 16394 ft 412 kts 171°
2026-05-04 18:54 -23.27144 -47.10143 16138 ft 410 kts 172°
2026-05-04 18:54 -23.29937 -47.09537 15885 ft 408 kts 172°
2026-05-04 18:55 -23.32715 -47.08931 15628 ft 406 kts 171°
2026-05-04 18:55 -23.38154 -47.07527 15137 ft 406 kts 162°
2026-05-04 18:55 -23.40709 -47.06201 14884 ft 408 kts 153°
2026-05-04 18:56 -23.43024 -47.04420 14635 ft 409 kts 142°
2026-05-04 18:56 -23.45029 -47.02231 14394 ft 409 kts 132°
2026-05-04 18:56 -23.46673 -46.99702 14147 ft 409 kts 124°
2026-05-04 18:56 -23.48183 -46.97082 13917 ft 408 kts 124°
2026-05-04 18:57 -23.49195 -46.95363 13740 ft 406 kts 124°
2026-05-04 18:57 -23.50719 -46.92777 13464 ft 405 kts 124°
2026-05-04 18:57 -23.52220 -46.90191 13215 ft 404 kts 124°
2026-05-04 18:57 -23.53719 -46.87606 12953 ft 402 kts 124°
2026-05-04 18:58 -23.55772 -46.84262 12657 ft 398 kts 130°
2026-05-04 18:58 -23.57652 -46.82197 12376 ft 369 kts 141°
2026-05-04 18:58 -23.58999 -46.81080 12181 ft 351 kts 148°
2026-05-04 18:58 -23.60974 -46.79729 11902 ft 330 kts 150°
2026-05-04 18:59 -23.62861 -46.78412 11610 ft 315 kts 149°
2026-05-04 18:59 -23.64668 -46.77151 11307 ft 302 kts 150°
2026-05-04 18:59 -23.66425 -46.75938 10992 ft 296 kts 150°
2026-05-04 18:59 -23.68141 -46.74752 10682 ft 288 kts 150°
2026-05-04 19:00 -23.69814 -46.73593 10367 ft 282 kts 149°
2026-05-04 19:00 -23.71449 -46.72455 10057 ft 276 kts 150°
2026-05-04 19:00 -23.73060 -46.71341 9714 ft 272 kts 150°
2026-05-04 19:00 -23.74649 -46.70239 9373 ft 269 kts 150°
2026-05-04 19:01 -23.76730 -46.68794 8905 ft 266 kts 149°
2026-05-04 19:01 -23.77781 -46.68064 8671 ft 265 kts 149°
2026-05-04 19:01 -23.79831 -46.66641 8205 ft 263 kts 149°
2026-05-04 19:01 -23.80849 -46.65931 7982 ft 262 kts 149°
2026-05-04 19:02 -23.82385 -46.64867 7656 ft 261 kts 149°
2026-05-04 19:02 -23.83915 -46.63805 7312 ft 260 kts 149°
2026-05-04 19:02 -23.85438 -46.62738 6982 ft 260 kts 149°
2026-05-04 19:02 -23.86962 -46.61678 6667 ft 260 kts 149°
2026-05-04 19:03 -23.88480 -46.60607 6354 ft 259 kts 149°
2026-05-04 19:03 -23.89988 -46.59530 6030 ft 259 kts 144°
2026-05-04 19:03 -23.91015 -46.58062 5613 ft 235 kts 107°
2026-05-04 19:03 -23.90993 -46.56422 5232 ft 209 kts 63°
2026-05-04 19:04 -23.90233 -46.55203 5230 ft 182 kts 44°
2026-05-04 19:04 -23.89279 -46.54446 5234 ft 160 kts 20°
2026-05-04 19:04 -23.88251 -46.54131 5240 ft 152 kts
2026-05-04 19:04 -23.87195 -46.54151 5245 ft 152 kts 352°
2026-05-04 19:05 -23.86120 -46.54179 5247 ft 156 kts 358°
2026-05-04 19:05 -23.85030 -46.54158 5245 ft 157 kts 357°
2026-05-04 19:05 -23.83942 -46.54137 5249 ft 155 kts 358°
2026-05-04 19:05 -23.82907 -46.54111 5253 ft 149 kts 358°
2026-05-04 19:06 -23.81881 -46.54091 5253 ft 146 kts 358°
2026-05-04 19:06 -23.80867 -46.54077 5259 ft 146 kts 358°
2026-05-04 19:06 -23.79844 -46.54054 5261 ft 148 kts 354°
2026-05-04 19:06 -23.78904 -46.54401 5264 ft 142 kts 325°
2026-05-04 19:07 -23.78069 -46.54979 5259 ft 142 kts 330°
2026-05-04 19:07 -23.77253 -46.55495 5285 ft 136 kts 326°
2026-05-04 19:07 -23.76443 -46.56079 5289 ft 139 kts 326°
2026-05-04 19:07 -23.75612 -46.56638 5289 ft 141 kts 327°
2026-05-04 19:08 -23.74789 -46.57231 5229 ft 141 kts 326°
2026-05-04 19:08 -23.73973 -46.57781 5061 ft 138 kts 327°
2026-05-04 19:08 -23.73193 -46.58334 4883 ft 131 kts 325°
2026-05-04 19:08 -23.72422 -46.58869 4711 ft 131 kts 328°
2026-05-04 19:09 -23.71649 -46.59403 4544 ft 131 kts 326°
2026-05-04 19:09 -23.70887 -46.59946 4361 ft 131 kts 329°
2026-05-04 19:09 -23.70112 -46.60466 4204 ft 131 kts 327°
2026-05-04 19:09 -23.69348 -46.61017 4030 ft 133 kts 327°
2026-05-04 19:10 -23.68565 -46.61539 3860 ft 129 kts 328°
2026-05-04 19:10 -23.67816 -46.62079 3694 ft 131 kts 327°
2026-05-04 19:10 -23.67043 -46.62604 3527 ft 133 kts 329°
2026-05-04 19:10 -23.66263 -46.63146 3344 ft 132 kts 327°
2026-05-04 19:11 -23.65507 -46.63681 3242 ft 129 kts 327°
2026-05-04 19:11 -23.64750 -46.64209 3056 ft 128 kts 327°
2026-05-04 19:11 -23.64005 -46.64718 2807 ft 125 kts 328°
2026-05-04 19:11 -23.63284 -46.65217 2647 ft 113 kts 325°
2026-05-04 19:12 -23.62715 -46.65612 2619 ft 78 kts 328°
2026-05-04 19:12 -23.62211 -46.65963 2606 ft 17 kts 312°
2026-05-04 19:12 -23.62264 -46.66040 2608 ft 17 kts 178°
2026-05-04 19:13 -23.62376 -46.66004 2611 ft 16 kts 147°
2026-05-04 19:13 -23.62441 -46.65981 2613 ft 7 kts 218°
2026-05-04 19:13 -23.62456 -46.66004 2614 ft 0 kts 238°